Texas Shootout - LOFT FLY

Station: LOFT CHECK - T Race

Distance: 1 Miles    

Release: 07-Sep-2017 07:20

Weather Release:    Arrival:

Wind at Release:     Wind at Arrival:

Temp at Release: °    Temp at Arrival: °

Lofts: 162

Birds: 950

Clocked: 948

LOFT FLYING FOR THE LAST 2 DAYS
Drops Pos Breeder Pigeon Name Color Sex Ent Arrival Speed To Win Eligible
52 West Wing Syndicate - TX 30469-AU17-JEDD BB H 2 2017-09-14 10:11:27.15 0.210 138:13:3 Yes
52 The Firm - TX 1186-IF17-KOLV Falcon Of Philadelphia BB H 3 2017-09-14 10:11:27.18 0.210 138:13:3 Yes
52 Rossi Loft Llc - WI 2096-AU17-KEN BBWF H 3 2017-09-14 10:11:27.28 0.210 138:13:3 Yes
52 Morningside Racing Loft - TX 91195-AU17-MSRL BBWF C 3 2017-09-14 10:11:27.74 0.210 138:13:3 Yes
52 T & T Lofts - TX 2100-AU17-TEX BB C 2 2017-09-14 10:11:27.93 0.210 138:13:3 Yes
52 Abel Loft - CA 7551-AU17-HAN BC C 5 2017-09-14 10:11:27.96 0.210 138:13:3 Yes
52 Crestview Loft - TX 1338-AU17-CVL BB C 1 2017-09-14 10:11:28.15 0.210 138:13:3 Yes
52 Hutchins Loft - TX 0076-AU17-HUCH BB H 1 2017-09-14 10:11:28.34 0.210 138:13:3 Yes
52 Racing Pigeon Mall - WA 0708-AU17-RPM BLK C 3 2017-09-14 10:11:28.65 0.210 138:13:3 Yes
52 K & R Loft - TX 2937-AU17-TX DC C 1 2017-09-14 10:11:28.93 0.210 138:13:3 Yes
52 Band Of Brothers - TX 0523-AU17-WOOD BB C 3 2017-09-14 10:11:29.29 0.210 138:13:3 Yes
52 John Coker - TX 34095-AU17-AA BBWF H 1 2017-09-14 10:11:29.76 0.210 138:13:3 Yes
52 Tex-Mex Loft - TX 0675-AU17-NSL BB C 12 2017-09-14 10:11:29.95 0.210 138:13:3 Yes
52 Quest Syndicate/Any Given Day Loft - TX 16617-AU17-QS BB C 3 2017-09-14 10:11:30.07 0.210 138:13:3 Yes
52 Steven Loft - TX 5848-AU17-ARPU BB C 1 2017-09-14 10:11:30.90 0.210 138:13:3 Yes
52 Elton Dinga - TX 12141-AU17-AA SIL H 19 2017-09-14 10:11:31.51 0.210 138:13:3 Yes
52 Wind Chaser - MI 1624-AU17-GRM BC H 3 2017-09-14 10:11:32.06 0.210 138:13:3 Yes
52 Bill Kluge - TX 1731-AU17-COLD BB C 2 2017-09-14 10:11:32.17 0.210 138:13:3 Yes
52 Mlb Team - TX 2932-AU17-TEX BWFP C 4 2017-09-14 10:11:32.29 0.210 138:13:3 Yes
52 Southern Legacy Loft - TX 2263-AU17-JOJO BB H 1 2017-09-14 10:11:32.31 0.210 138:13:3 Yes
52 Hi-Cal Connection - CA 0867-AU17-HICA BB C 2 2017-09-14 10:11:32.65 0.210 138:13:3 Yes
52 A P C Loft - TX 17336-AU17-APC BBWF C 5 2017-09-14 10:11:33.17 0.210 138:13:3 Yes
52 L & L Loft - AL 17031-AU17-LL MIL H 5 2017-09-14 10:11:33.54 0.210 138:13:3 Yes
52 H & H Loft - TX 6958-AU17-VK BB H 4 2017-09-14 10:11:33.99 0.210 138:13:3 Yes
52 New Orleans Boys 2 - LA 0655-AU17-MET BB H 5 2017-09-14 10:11:34.26 0.210 138:13:3 Yes
52 A D L Loft - IL 0171-AU17-ADL DCWF C 2 2017-09-14 10:11:34.37 0.210 138:13:3 Yes
52 Si Se Puede Farm - TX 32202-AU17-AA DC H 1 2017-09-14 10:11:34.56 0.210 138:13:3 Yes
52 Espo Loft - SC 0963-AU17-ESPO BBPD H 1 2017-09-14 10:11:34.78 0.210 138:13:3 Yes
52 West Wing Syndicate - TX 1243-AU17-TEX BBPD H 1 2017-09-14 10:11:34.87 0.210 138:13:3 Yes
52 English Syndicate - UK 2925-AU17-TEX BB H 2 2017-09-14 10:11:35.20 0.210 138:13:3 Yes
52 Hillbilly Loft - TX 17656-AU17-AA BB H 5 2017-09-14 10:11:35.34 0.210 138:13:3 Yes
52 West Wing Syndicate - TX 30468-AU17-JEDD BB H 4 2017-09-14 10:11:35.51 0.210 138:13:3 Yes
52 Hines Family Loft - SD 7064-AU17-GPF BSPL H 1 2017-09-14 10:11:35.74 0.210 138:13:3 Yes
52 Zhenyuan Guo - SC 0682-AU17-GUO BC H 1 2017-09-14 10:11:35.82 0.210 138:13:3 Yes
52 Sky King Loft - TX 16909-AU17-QS BBWF H 2 2017-09-14 10:11:36.06 0.210 138:13:3 Yes
52 Baden Feed - ON 90304-IF17-E DC H 2 2017-09-14 10:11:36.31 0.210 138:13:3 Yes
52 Lazy P Loft - TX 0054-IF17-RLPC BC H 2 2017-09-14 10:11:36.34 0.210 138:13:3 Yes
52 Ecker/Murphy Syndicate - PA 2394-IF17-CVR BB H 4 2017-09-14 10:11:36.57 0.210 138:13:3 Yes
52 Apollo Loft 2 - IL 2982-AU17-APLO BCWF H 1 2017-09-14 10:11:36.90 0.210 138:13:3 Yes
52 Tepa - TX 0263-AU17-DEN BB H 1 2017-09-14 10:11:36.98 0.210 138:13:3 Yes
52 Black Magic Loft - TX 0431-AU17-BLKM BBWF H 2 2017-09-14 10:11:37.71 0.210 138:13:3 Yes
52 Scorpion Loft - TX 14723-MX17-CNU BB H 3 2017-09-14 10:11:37.73 0.210 138:13:3 Yes
52 Hutchins Loft - TX 0068-AU17-HUCH BC H 4 2017-09-14 10:11:38.04 0.210 138:13:3 Yes
52 Crestview Loft - TX 1320-AU17-CVL BB H 2 2017-09-14 10:11:38.28 0.210 138:13:3 Yes
52 Taj Syndicate - TX 11828-AU17-GHC BB H 2 2017-09-14 10:11:38.49 0.210 138:13:3 Yes
52 Holleys Silver Star - TX 0945-AU17-DEN BB H 5 2017-09-14 10:11:38.67 0.210 138:13:3 Yes
52 Cbs & Rick - OK 1364-AU17-CBS BBWF H 3 2017-09-14 10:11:38.92 0.210 138:13:3 Yes
52 Hillbilly Loft - TX 17635-AU17-AA BWFP H 6 2017-09-14 10:11:39.20 0.210 138:13:3 Yes
52 Vick Corso - LA 1314-AU17-CRSO BCWF C 3 2017-09-14 10:11:40.07 0.210 138:13:3 Yes
52 Little Reata Loft - TX 17336-AU17-JETT BC C 5 2017-09-14 10:11:40.12 0.210 138:13:3 Yes
52 Buck`S - TX 2048-AU17-KBUC BC H 3 2017-09-14 10:11:40.84 0.210 138:13:3 Yes
52 Elton Dinga - TX 12071-AU17-AA BB H 21 2017-09-14 10:11:41.13 0.210 138:13:3 Yes
52 A P C Loft - TX 17311-AU17-APC GRIZ H 3 2017-09-14 10:11:41.35 0.210 138:13:3 Yes
52 Cajun Express Loft - LA 10961-AU17-AA BB H 1 2017-09-14 10:11:41.49 0.210 138:13:3 Yes
52 Elton Dinga - TX 12126-AU17-AA BC H 14 2017-09-14 10:11:42.13 0.210 138:13:3 Yes
52 Tony Alvarado - TX 0066-AU17-WETT BWFP H 4 2017-09-14 10:11:42.18 0.210 138:13:3 Yes
52 Baptista - IL 3085-AU17-FOYS BB H 2 2017-09-14 10:11:42.23 0.210 138:13:3 Yes
52 ! ! ! S P E E D S - R A C E R S ! ! ! - FL 2700-AU17-SCHE BB H 2 2017-09-14 10:11:42.45 0.210 138:13:3 Yes
52 New Orleans Boys 2 - LA 0348-AU17-MET BB H 2 2017-09-14 10:11:42.46 0.210 138:13:3 Yes
52 Smith & Smith 1 - TX 17055-AU17-ACES BB C 1 2017-09-14 10:11:42.54 0.210 138:13:3 Yes
52 Larry Payne - KS 0274-AU17-LPL GRZ C 2 2017-09-14 10:11:42.78 0.210 138:13:3 Yes
52 Anderson, Aycock & Louie - AZ 1335-AU17-DTCH BC H 3 2017-09-14 10:11:42.96 0.210 138:13:3 Yes
52 A D L Loft - IL 0151-AU17-ADL BC H 4 2017-09-14 10:11:43.29 0.210 138:13:3 Yes
52 T & T Lofts - TX 2217-AU17-TEX BC H 1 2017-09-14 10:11:43.60 0.210 138:13:3 Yes
52 Utaz Team - UT 0965-AU17-PSC BBWF C 2 2017-09-14 10:11:43.71 0.210 138:13:3 Yes
52 Taj Syndicate - TX 0095-AU17-EISN BC H 1 2017-09-14 10:11:43.74 0.210 138:13:3 Yes
52 Floating Feather Loft - TX 1344-AU17-CVL BBWF H 1 2017-09-14 10:11:44.67 0.210 138:13:3 Yes
52 Wartick Loft - KS 0236-AU17-AIR BC H 1 2017-09-14 10:11:45.23 0.210 138:13:3 Yes
52 Dave Byer - CA 5723-AU17-ARPU BB H 3 2017-09-14 10:11:45.49 0.210 138:13:3 Yes
52 A P C Loft - TX 17330-AU17-APC RC C 8 2017-09-14 10:11:45.68 0.210 138:13:3 Yes
52 Elton Dinga - TX 12147-AU17-AA BC H 6 2017-09-14 10:11:46.04 0.210 138:13:3 Yes
52 A P C Loft - TX 17320-AU17-APC BB H 7 2017-09-14 10:11:46.32 0.210 138:13:3 Yes
52 Wolf Den & Family Loft - IL 0054-AU17-WOLF BB H 2 2017-09-14 10:11:46.51 0.210 138:13:3 Yes
52 Gold Star Loft - CA 1293-AU17-STON RC C 4 2017-09-14 10:11:46.56 0.210 138:13:3 Yes
52 Crestview Loft - TX 1332-AU17-CVL BB H 3 2017-09-14 10:11:46.57 0.210 138:13:3 Yes
52 Elton Dinga - TX 12110-AU17-AA BC H 11 2017-09-14 10:11:47.07 0.210 138:13:3 Yes
52 Bieche Lofts - CA 7474-AU17-BCHE BCWF H 1 2017-09-14 10:11:47.12 0.210 138:13:3 Yes
52 Elton Dinga - TX 12132-AU17-AA BB C 20 2017-09-14 10:11:47.24 0.210 138:13:3 Yes
52 Liqingni Loft - NY 0271-AU17-YANG BCWF H 1 2017-09-14 10:11:47.70 0.210 138:13:3 Yes
52 Duffy's Loft - TX 9790-AU17-FOYS BCWF H 3 2017-09-14 10:11:47.74 0.210 138:13:3 Yes
52 Chen Loft - PA 0128-AU17-TFC BB C 1 2017-09-14 10:11:48.17 0.210 138:13:3 Yes
52 Armando & Rameriz Loft - TX 0166-AU17-DAL BB H 3 2017-09-14 10:11:48.49 0.210 138:13:3 Yes
52 Kanetzky & Vazquez Loft - TX 6309-AU17-VK BB C 1 2017-09-14 10:11:48.67 0.210 138:13:3 Yes
52 John Coker - TX 34093-AU17-AA BB C 5 2017-09-14 10:11:49.12 0.210 138:13:3 Yes
52 Los Banditos - CA 2463-AU17-LB BC H 2 2017-09-14 10:11:49.37 0.210 138:13:3 Yes
52 Cbs & Rick - OK 1485-AU17-CBS BB H 1 2017-09-14 10:11:49.40 0.210 138:13:3 Yes
52 Lawrence Cummins - UT 0984-AU17-DWI BC H 2 2017-09-14 10:11:49.73 0.210 138:13:3 Yes
52 Perfection Loft - KS 3748-AU17-AA BC H 2 2017-09-14 10:11:50.13 0.210 138:13:3 Yes
52 Nesneb Racing Loft - AL 17098-AU17-NSNB BB H 4 2017-09-14 10:11:50.60 0.210 138:13:3 Yes
52 Elton Dinga - TX 12096-AU17-AA BB C 31 2017-09-14 10:11:50.78 0.210 138:13:3 Yes
52 Baptista - IL 0021-AU17-BAPT BBWF C 1 2017-09-14 10:11:51.03 0.210 138:13:3 Yes
52 Lazy P Loft - TX 0043-IF17-RLPC BB H 1 2017-09-14 10:11:51.20 0.210 138:13:3 Yes
52 Tex-Mex Loft - TX 0613-AU17-NSL BB H 11 2017-09-14 10:11:51.88 0.210 138:13:3 Yes
52 Spirit In The Sky - IL 0364-AU17-LCC BB H 2 2017-09-14 10:11:52.12 0.210 138:13:3 Yes
52 Richard Callahan - MO 1673-AU17-AA BC H 5 2017-09-14 10:11:52.45 0.210 138:13:3 Yes
52 Duffy's Loft - TX 9788-AU17-FOYS BC C 4 2017-09-14 10:11:52.57 0.210 138:13:3 Yes
52 Elton Dinga - TX 12057-AU17-AA BB H 13 2017-09-14 10:11:52.71 0.210 138:13:3 Yes
52 Franco Loft - TX 0738-AU17-DEN BB H 2 2017-09-14 10:11:52.99 0.210 138:13:3 Yes
52 Aok Loft - NE 0962-AU17-OMAH BB H 5 2017-09-14 10:11:53.59 0.210 138:13:3 Yes
52 Y Mtn Loft - TN 0162-AU17-ARPU BB C 1 2017-09-14 10:11:54.23 0.210 138:13:3 Yes

There are 1003 bird records

Note: These Race Results are unofficial and subject to change until verified by the Race Committee and declared final.